Weather History for Plattsmouth, NE

Change the Weather History Date:

Sunday, February 19, 2012

  Actual Average (KOFF) Record (KOFF)
Temperature  
Mean Temperature 33 °F -  
Max Temperature 43 °F 38 °F 52 °F (2011)
Min Temperature 23 °F 21 °F 1 °F (2006)
Degree Days  
Heating Degree Days 32    
Moisture  
Dew Point 25 °F    
Average Humidity 73    
Maximum Humidity 90    
Minimum Humidity 54    
Precipitation  
Precipitation 0.00 in - - ()
Sea Level Pressure  
Sea Level Pressure 30.06 in    
Wind  
Wind Speed 6 mph (SE)    
Max Wind Speed 14 mph    
Max Gust Speed -    
Visibility 10 miles    
Events      
Averages and records for this station are not official NWS values.
T = Trace of Precipitation, MM = Missing Value Source: NWS Daily Summary

Daily Weather History Graph

Daily Weather History Graph

Search for Another Location

Airport:

Trip Planner

Search our weather history database for the weather conditions in past years. The results will help you decide how hot, cold, wet, or windy it might be!

Date:

Astronomy

Feb. 19, 2012 Rise Set
Actual Time 7:13 AM CST 6:02 PM CST
Civil Twilight 6:45 AM CST 6:30 PM CST
Nautical Twilight 6:13 AM CST 7:02 PM CST
Astronomical Twilight 5:41 AM CST 7:34 PM CST
Moon 5:35 AM CST 4:04 PM CST
Length of Visible Light 11h 45m
Length of Day
10h 49m
Waning Crescent, 5% of the Moon is Illuminated
Feb 19
Waning Crescent
Feb 21
New
Feb 29
First Quarter
Mar 8
Full
Mar 14
Last Quarter

Hourly Weather History & Observations

Time (CST) Temp. Windchill Dew Point Humidity Pressure Visibility Wind Dir Wind Speed Gust Speed Precip Events Conditions
12:15 AM 28.0 °F - 22.5 °F 80% 30.13 in 10.0 mi Calm Calm - N/A   Clear
12:35 AM 27.3 °F - 21.9 °F 80% 30.13 in 10.0 mi Calm Calm - N/A   Clear
12:55 AM 26.8 °F 22.8 °F 21.9 °F 82% 30.13 in 10.0 mi SE 3.5 mph - N/A   Clear
1:15 AM 25.7 °F 21.5 °F 21.9 °F 86% 30.13 in 10.0 mi ESE 3.5 mph - N/A   Clear
1:35 AM 25.9 °F 21.7 °F 22.3 °F 86% 30.13 in 10.0 mi SE 3.5 mph - N/A   Clear
1:55 AM 26.4 °F 20.9 °F 22.1 °F 84% 30.13 in 10.0 mi SE 4.6 mph - N/A   Clear
2:15 AM 26.4 °F 20.9 °F 21.9 °F 83% 30.13 in 10.0 mi SE 4.6 mph - N/A   Clear
2:35 AM 26.2 °F 20.7 °F 21.7 °F 83% 30.12 in 10.0 mi SE 4.6 mph - N/A   Clear
2:55 AM 25.5 °F 19.9 °F 21.0 °F 83% 30.11 in 10.0 mi SSE 4.6 mph - N/A   Clear
3:15 AM 25.2 °F 18.3 °F 20.8 °F 84% 30.10 in 10.0 mi SSE 5.8 mph - N/A   Clear
3:35 AM 24.8 °F 17.9 °F 20.7 °F 84% 30.09 in 10.0 mi SE 5.8 mph - N/A   Clear
3:55 AM 24.4 °F 17.5 °F 21.0 °F 87% 30.09 in 10.0 mi SE 5.8 mph - N/A   Clear
4:15 AM 24.6 °F 17.7 °F 21.0 °F 86% 30.09 in 10.0 mi SE 5.8 mph - N/A   Clear
4:35 AM 24.8 °F 17.9 °F 21.2 °F 86% 30.09 in 10.0 mi SE 5.8 mph - N/A   Clear
4:55 AM 23.9 °F 16.8 °F 20.7 °F 87% 30.09 in 10.0 mi SE 5.8 mph - N/A   Clear
5:15 AM 24.3 °F 17.3 °F 21.0 °F 87% 30.09 in 10.0 mi SE 5.8 mph - N/A   Clear
5:35 AM 24.8 °F 17.9 °F 21.0 °F 86% 30.09 in 10.0 mi SSE 5.8 mph - N/A   Clear
5:55 AM 24.4 °F 17.5 °F 20.8 °F 86% 30.09 in 10.0 mi SSE 5.8 mph - N/A   Clear
6:15 AM 23.4 °F 16.2 °F 20.3 °F 88% 30.09 in 10.0 mi SE 5.8 mph - N/A   Clear
6:35 AM 23.7 °F 15.6 °F 21.2 °F 90% 30.09 in 10.0 mi SSE 6.9 mph - N/A   Clear
6:55 AM 23.9 °F 15.0 °F 21.2 °F 89% 30.09 in 10.0 mi SSE 8.1 mph - N/A   Clear
7:15 AM 23.9 °F 15.0 °F 20.8 °F 88% 30.09 in 10.0 mi SSE 8.1 mph - N/A   Clear
7:35 AM 23.9 °F 15.0 °F 21.0 °F 89% 30.09 in 10.0 mi SE 8.1 mph - N/A   Clear
7:55 AM 24.4 °F 14.9 °F 21.0 °F 87% 30.10 in 10.0 mi SSE 9.2 mph - N/A   Clear
8:15 AM 26.4 °F 17.3 °F 21.9 °F 83% 30.11 in 10.0 mi SSE 9.2 mph - N/A   Clear
8:35 AM 28.0 °F 18.6 °F 22.5 °F 80% 30.11 in 10.0 mi SSE 10.4 mph - N/A   Clear
8:55 AM 28.9 °F 21.1 °F 22.8 °F 78% 30.11 in 10.0 mi SSE 8.1 mph - N/A   Clear
9:15 AM 29.8 °F 22.2 °F 23.4 °F 77% 30.11 in 10.0 mi SSE 8.1 mph - N/A   Clear
9:35 AM 30.9 °F 22.8 °F 24.1 °F 76% 30.11 in 10.0 mi SSE 9.2 mph - N/A   Clear
9:55 AM 31.5 °F 22.9 °F 24.4 °F 75% 30.11 in 10.0 mi SSE 10.4 mph - N/A   Clear
10:15 AM 32.2 °F 23.8 °F 25.3 °F 76% 30.11 in 10.0 mi South 10.4 mph - N/A   Clear
10:35 AM 33.1 °F 26.1 °F 26.1 °F 75% 30.11 in 10.0 mi SSE 8.1 mph - N/A   Clear
10:55 AM 34.2 °F 28.2 °F 26.6 °F 74% 30.10 in 10.0 mi SSE 6.9 mph - N/A   Clear
11:15 AM 35.4 °F 29.0 °F 26.1 °F 69% 30.10 in 10.0 mi SSE 8.1 mph - N/A   Clear
12:35 PM 39.2 °F 33.0 °F 28.6 °F 66% 30.06 in 10.0 mi SE 9.2 mph - N/A   Clear
12:55 PM 39.4 °F 32.7 °F 28.2 °F 64% 30.06 in 10.0 mi SSE 10.4 mph - N/A   Clear
1:35 PM 41.0 °F 35.8 °F 29.5 °F 64% 30.03 in 10.0 mi SE 8.1 mph - N/A   Clear
1:55 PM 41.4 °F 35.7 °F 30.0 °F 64% 30.02 in 10.0 mi SE 9.2 mph - N/A   Clear
2:15 PM 41.9 °F 34.6 °F 28.8 °F 60% 30.03 in 10.0 mi SSE 13.8 mph - N/A   Clear
2:35 PM 42.4 °F 37.0 °F 29.7 °F 61% 30.03 in 10.0 mi SE 9.2 mph - N/A   Clear
2:55 PM 42.8 °F 37.5 °F 29.7 °F 60% 30.01 in 10.0 mi SE 9.2 mph - N/A   Clear
3:15 PM 43.3 °F 37.7 °F 28.0 °F 55% 30.01 in 10.0 mi SE 10.4 mph - N/A   Clear
3:35 PM 43.3 °F 38.1 °F 27.9 °F 54% 30.01 in 10.0 mi SE 9.2 mph - N/A   Clear
3:55 PM 43.2 °F 37.9 °F 28.6 °F 56% 30.00 in 10.0 mi SE 9.2 mph - N/A   Clear
4:15 PM 42.8 °F 38.0 °F 28.9 °F 58% 30.00 in 10.0 mi SE 8.1 mph - N/A   Clear
4:35 PM 42.8 °F 37.5 °F 28.4 °F 57% 29.99 in 10.0 mi SE 9.2 mph - N/A   Clear
4:55 PM 42.3 °F 36.8 °F 28.8 °F 59% 29.97 in 10.0 mi SE 9.2 mph - N/A   Clear
5:15 PM 42.1 °F 37.1 °F 28.9 °F 60% 29.97 in 10.0 mi ESE 8.1 mph - N/A   Clear
5:35 PM 41.4 °F 36.8 °F 27.9 °F 59% 29.97 in 10.0 mi SE 6.9 mph - N/A   Clear
5:55 PM 40.5 °F 34.6 °F 26.1 °F 57% 29.97 in 10.0 mi ESE 9.2 mph - N/A   Clear
6:15 PM 40.3 °F 33.9 °F 25.9 °F 56% 29.97 in 10.0 mi ESE 10.4 mph - N/A   Clear
6:35 PM 39.2 °F 33.0 °F 26.6 °F 61% 29.97 in 10.0 mi ESE 9.2 mph - N/A   Clear
6:55 PM 38.7 °F 33.6 °F 26.6 °F 62% 29.98 in 10.0 mi SE 6.9 mph - N/A   Clear
7:15 PM 38.5 °F 32.7 °F 26.4 °F 62% 29.98 in 10.0 mi ESE 8.1 mph - N/A   Clear
7:35 PM 38.3 °F 31.9 °F 26.4 °F 62% 29.98 in 10.0 mi ESE 9.2 mph - N/A   Clear
7:55 PM 37.4 °F 31.4 °F 26.4 °F 65% 29.98 in 10.0 mi ESE 8.1 mph - N/A   Clear
8:15 PM 37.0 °F 31.0 °F 26.2 °F 65% 29.97 in 10.0 mi ESE 8.1 mph - N/A   Clear
8:35 PM 37.0 °F 30.4 °F 26.1 °F 65% 29.97 in 10.0 mi ESE 9.2 mph - N/A   Clear
8:55 PM 36.5 °F 29.7 °F 26.8 °F 68% 29.97 in 10.0 mi SE 9.2 mph - N/A   Clear
9:15 PM 36.3 °F 30.1 °F 27.0 °F 69% 29.97 in 10.0 mi ESE 8.1 mph - N/A   Clear
9:35 PM 35.8 °F 28.8 °F 27.1 °F 71% 29.97 in 10.0 mi ESE 9.2 mph - N/A   Clear
9:55 PM 36.3 °F 28.4 °F 27.5 °F 70% 29.97 in 10.0 mi SE 11.5 mph - N/A   Clear
10:15 PM 36.5 °F 28.7 °F 27.3 °F 69% 29.98 in 10.0 mi SE 11.5 mph - N/A   Clear
10:35 PM 35.8 °F 27.3 °F 27.5 °F 72% 29.98 in 10.0 mi SE 12.7 mph - N/A   Clear
10:55 PM 36.0 °F 27.5 °F 27.5 °F 71% 29.98 in 10.0 mi SE 12.7 mph 17.3 mph N/A   Clear
11:15 PM 35.8 °F 27.3 °F 27.1 °F 71% 29.98 in 10.0 mi SE 12.7 mph - N/A   Clear
11:35 PM 35.6 °F 27.1 °F 26.6 °F 70% 29.98 in 10.0 mi SE 12.7 mph 19.6 mph N/A   Clear
11:55 PM 35.8 °F 26.9 °F 26.2 °F 68% 29.98 in 10.0 mi SE 13.8 mph - N/A   Clear